Theta_e
338 334 330 327 331 334 333 334 311 315 313 305 306 307 306 314 315 315 316 317 317 321 325 326 324 326 321 318 321 325 324 321 320 314 318 342 349 347 345 345 344 349 349 350 352 354 353 351 350 350 350 350 352 352 352 352 353 353 354 353 353 353 353 352 352 353 353 352 352 352 352 352 351 351 352 350 347 346 345 344 342 342 341 341 342 342 344 343 344 345 345 345 345 345 346 346 345
328 328 329 329 329 327 321 324 311 308 307 304 306 310 309 313 312 311 314 315 318 321 327 328 329 325 324 324 323 324 327 333 336 336 341 346 349 346 347 346 346 347 349 350 350 351 350 351 350 351 349 350 351 351 352 352 353 353 354 353 353 353 352 353 352 352 352 352 351 352 352 352 352 352 352 351 348 346 345 344 343 342 341 341 343 343 344 344 346 346 345 345 344 346 345 344 345
327 327 323 326 325 324 318 317 305 306 303 301 304 308 311 310 310 311 313 317 320 324 325 324 326 325 323 323 323 320 326 335 341 342 341 347 342 344 346 346 346 348 349 350 350 350 351 351 350 349 349 350 350 350 352 352 353 353 354 353 353 353 352 352 352 351 352 352 351 353 352 352 352 352 351 351 350 348 347 346 344 343 343 343 344 345 346 345 345 345 345 345 345 346 346 346 346
334 331 322 320 314 319 312 312 307 305 302 303 304 308 310 309 309 311 314 317 320 323 319 320 322 322 322 321 321 326 329 334 341 342 340 344 345 346 347 347 349 347 349 349 350 349 352 351 350 350 349 350 350 350 351 352 353 354 354 353 353 353 353 352 351 351 352 350 352 352 352 352 351 351 351 350 348 347 346 345 343 345 345 345 345 346 346 347 346 346 345 346 346 346 346 346 344
331 327 325 318 314 310 312 309 308 308 302 304 303 309 311 310 310 311 312 317 318 319 318 318 316 328 322 323 322 323 328 339 341 345 345 347 348 348 347 347 346 346 345 348 349 351 352 350 350 350 350 349 349 350 351 352 353 354 353 354 353 353 353 352 352 351 351 351 352 351 351 352 352 351 349 347 346 345 346 347 346 345 345 346 346 347 347 347 347 347 347 346 347 346 345 345 345
320 320 322 320 312 317 312 306 306 305 308 309 305 308 311 312 311 311 312 316 317 318 316 318 316 316 325 327 329 333 341 330 342 344 345 345 347 349 347 347 345 344 345 349 350 354 352 350 350 350 350 349 350 351 352 353 353 354 354 352 352 352 353 352 352 351 350 351 351 351 351 351 351 350 349 349 348 347 346 346 347 347 347 347 346 347 347 347 347 347 347 347 346 346 345 343 344
316 316 317 316 314 315 305 304 305 306 308 311 309 309 312 313 312 312 312 312 313 315 317 317 318 318 317 333 341 342 348 347 342 343 347 347 348 348 347 346 344 345 348 349 350 353 351 350 350 349 349 349 351 352 353 353 354 354 353 352 352 352 353 352 352 352 352 350 351 351 351 351 350 350 349 349 348 347 347 346 345 346 347 348 349 348 348 348 348 348 347 347 345 344 345 344 342
320 313 314 309 306 309 303 304 305 307 307 311 313 311 312 313 313 312 311 311 310 312 316 317 318 314 321 331 324 343 346 349 348 349 348 347 347 346 346 346 345 344 347 350 352 353 352 350 349 349 349 350 351 353 353 354 353 353 352 352 351 352 352 351 351 351 351 350 350 350 349 348 347 348 348 348 347 346 346 345 345 345 347 348 348 347 347 348 348 347 347 345 344 343 344 345 345
318 315 316 309 304 307 304 304 304 309 308 311 312 314 317 313 313 312 312 312 312 312 314 316 318 313 324 324 334 342 344 349 348 349 347 346 344 345 346 345 342 343 345 349 353 352 351 350 349 350 350 351 352 353 353 353 353 353 352 352 352 352 351 351 351 350 349 348 347 347 347 346 346 346 346 345 345 344 344 344 344 345 346 346 347 346 347 347 345 346 345 345 345 344 344 344 346
315 314 307 307 307 301 302 305 304 307 308 311 312 313 314 313 313 313 312 312 312 313 317 318 318 316 318 327 334 341 343 348 348 346 346 345 344 345 344 343 343 343 345 348 350 350 350 351 350 350 351 352 353 353 353 353 353 353 351 351 351 350 350 349 349 348 348 347 347 346 346 345 344 344 344 344 343 343 343 343 343 344 345 345 345 346 346 346 346 346 346 346 346 345 344 345 347
309 313 314 306 302 300 301 304 306 307 308 312 313 315 314 315 313 312 312 312 314 313 316 317 322 317 322 328 340 346 348 347 346 343 345 344 344 343 343 344 344 346 346 347 349 350 349 349 352 350 352 353 353 353 353 352 352 352 351 351 350 350 349 348 348 347 346 345 345 344 343 343 343 342 342 341 341 341 342 342 343 343 344 344 344 344 345 346 346 346 347 347 347 345 346 346 346
307 309 310 301 300 301 303 303 305 307 310 312 311 315 316 315 314 311 311 311 314 314 316 316 315 319 319 330 338 344 347 347 345 345 345 345 344 344 343 344 345 346 347 346 348 349 348 349 350 353 353 353 352 352 352 352 351 351 351 350 350 349 349 348 347 345 344 343 343 342 341 342 341 341 340 339 339 340 341 342 342 342 342 343 344 344 345 346 346 346 346 346 346 346 346 345 345
309 310 307 303 302 303 305 304 305 307 308 310 310 314 317 315 312 313 312 312 314 313 314 319 317 320 323 330 342 344 344 346 347 347 346 345 345 345 345 345 346 347 347 348 348 346 347 347 346 351 353 353 352 352 352 351 351 350 350 350 349 348 347 346 345 344 343 342 341 341 341 340 341 340 340 339 339 339 341 341 341 341 342 343 344 344 345 345 345 345 345 345 345 345 344 344 344
310 311 310 304 308 304 303 303 305 304 305 311 313 316 315 314 314 314 314 311 313 314 319 321 321 318 324 335 340 340 343 347 347 348 346 345 345 345 345 346 346 346 346 347 346 345 346 345 347 350 354 354 354 353 351 351 350 350 349 348 347 347 346 346 345 344 343 343 343 342 341 340 340 340 340 339 339 340 340 341 341 342 343 343 344 344 345 344 343 344 343 343 342 344 344 344 344
309 314 310 307 305 305 306 301 302 303 304 311 314 315 314 315 316 314 313 312 313 318 322 323 321 317 321 318 326 339 343 346 347 347 346 345 346 346 345 346 346 345 345 346 345 346 346 345 346 351 354 352 353 352 352 353 350 350 349 348 347 347 347 347 345 344 344 344 344 343 343 342 342 341 340 339 340 340 340 341 342 343 343 343 344 345 344 343 342 340 343 342 342 343 345 345 343
313 311 308 305 303 304 305 304 305 304 305 311 314 316 313 315 316 314 315 316 316 320 318 321 325 318 322 327 332 343 345 346 347 347 346 344 345 345 345 346 345 345 344 345 345 346 346 345 346 346 350 350 352 353 352 353 351 350 349 348 347 347 346 345 344 344 345 345 344 344 344 344 343 342 341 341 341 340 341 343 342 343 342 342 343 342 343 342 342 344 344 346 346 346 347 346 345
315 311 303 304 302 304 306 306 306 301 308 311 314 313 311 312 318 318 320 321 317 318 320 320 326 328 330 328 345 346 346 348 347 346 345 343 343 342 343 343 343 343 345 345 345 346 346 344 347 346 350 351 352 355 352 354 352 350 349 348 347 346 346 345 344 344 345 346 346 346 346 346 347 345 343 338 341 344 342 341 341 342 343 342 343 343 344 345 344 346 346 346 347 347 348 347 346
312 305 303 302 306 304 309 307 307 310 308 310 311 313 312 310 315 317 320 318 317 317 320 326 325 332 330 342 348 347 347 346 347 344 342 341 342 339 340 341 340 339 340 342 344 346 344 343 342 348 349 351 352 353 354 353 352 351 352 350 348 347 346 345 346 346 346 345 346 347 350 344 345 347 344 344 344 342 341 341 343 344 344 345 345 345 345 347 347 347 347 347 349 348 348 348 346
307 304 304 302 306 308 312 311 311 309 308 308 312 314 313 312 314 318 315 315 315 314 317 321 323 327 335 340 345 345 345 346 346 345 342 341 340 339 339 341 339 339 339 340 341 343 342 342 346 347 348 352 356 353 350 352 350 350 350 349 347 346 345 346 347 346 345 341 347 346 346 347 346 344 346 344 343 343 343 345 344 345 346 346 346 347 348 348 348 348 348 349 349 350 346 342 342
308 305 302 304 310 311 313 312 311 311 311 308 311 312 312 314 315 318 314 313 315 313 314 317 319 319 331 338 343 344 346 345 346 345 343 342 341 341 341 339 339 339 339 339 339 342 341 340 347 348 347 355 353 354 351 350 350 350 348 348 348 345 346 344 343 344 342 343 342 346 347 349 349 351 348 351 348 342 344 345 346 346 347 348 347 348 349 349 348 348 348 349 347 345 341 338 336
309 306 302 306 311 309 312 313 313 312 313 311 310 312 312 314 315 314 313 312 313 314 317 316 316 318 330 339 342 344 346 345 345 345 344 342 343 343 343 341 339 339 340 340 340 340 341 343 345 348 349 351 351 349 352 351 352 347 347 346 347 345 343 344 344 346 346 346 346 349 348 350 348 348 348 348 348 347 343 341 346 347 344 340 349 347 344 343 347 340 342 345 340 339 339 342 340
310 306 308 310 311 309 312 313 313 312 313 311 311 309 310 316 315 313 313 309 310 314 315 317 317 317 334 337 340 345 345 345 344 343 344 344 344 342 344 342 343 342 341 339 338 340 342 344 347 347 348 349 349 349 351 351 350 347 346 346 347 346 344 343 343 345 346 348 348 348 349 349 348 348 349 348 349 348 351 349 350 347 349 345 342 352 347 345 345 342 342 336 342 346 343 346 347
303 308 309 310 311 310 313 313 312 312 312 310 309 312 314 313 312 314 313 312 314 319 318 319 319 321 339 336 342 346 345 344 343 343 343 342 344 343 344 342 341 339 339 339 339 339 343 345 347 348 347 348 348 348 348 351 346 346 346 346 344 343 343 344 343 344 346 349 349 349 349 346 348 350 348 350 348 348 346 346 347 349 351 350 350 350 346 349 346 344 347 344 346 343 344 344 347
307 304 308 309 311 310 312 312 312 311 312 311 312 314 312 312 308 314 313 314 316 318 320 320 321 321 321 333 345 346 346 344 344 345 346 344 345 343 344 342 341 342 340 339 339 340 344 343 345 347 347 348 348 348 348 347 347 347 347 345 345 341 341 343 343 343 346 347 350 350 351 348 349 349 349 351 351 349 352 352 349 346 353 351 349 348 347 352 351 346 347 345 343 344 342 345 345
305 305 308 309 310 311 312 312 312 312 313 314 312 310 311 312 311 313 312 314 316 317 319 320 321 320 319 330 345 346 346 345 344 344 345 344 345 345 344 342 342 341 339 339 339 339 342 343 345 345 346 347 347 348 346 346 346 348 347 345 343 342 343 343 343 346 346 347 350 351 351 351 349 349 350 351 349 350 350 349 351 350 350 349 349 349 347 348 350 351 347 344 346 344 343 345 343
307 307 309 309 309 312 311 311 311 312 312 313 310 309 311 313 314 310 313 314 316 317 318 320 321 319 319 328 344 346 345 345 345 343 343 345 345 344 342 341 340 340 341 341 339 340 341 342 343 340 346 346 347 349 346 346 347 346 347 345 342 342 344 345 346 343 346 345 347 350 351 353 351 348 349 350 352 349 352 353 352 349 349 352 353 348 347 348 349 344 349 344 342 342 343 344 342
309 307 308 308 309 311 311 310 311 312 312 313 308 308 310 313 311 306 317 315 316 317 318 322 321 319 320 329 344 346 346 345 345 344 343 344 344 343 342 342 340 340 342 341 340 340 341 340 340 341 346 348 347 346 345 347 347 346 346 344 345 342 344 346 344 346 345 346 348 351 348 349 352 350 349 348 349 355 350 350 348 348 350 351 349 347 348 347 346 344 347 342 344 342 342 342 341
308 308 308 308 308 309 311 310 310 312 310 313 310 308 311 311 310 307 311 314 318 317 317 318 319 318 319 328 345 346 346 346 344 344 341 341 341 341 341 340 341 341 340 340 340 341 340 341 341 343 344 348 348 346 347 347 346 345 346 345 343 344 347 344 343 346 344 345 349 349 349 352 352 352 350 347 347 346 347 348 348 348 350 347 349 349 350 349 347 345 345 345 345 344 343 343 344
307 308 303 305 306 305 309 308 309 310 309 312 311 308 306 307 306 311 313 315 315 315 317 320 320 319 318 326 344 344 343 344 344 342 342 342 342 342 340 342 341 341 341 342 342 342 341 343 341 344 345 348 348 346 347 347 347 346 346 344 345 346 345 344 344 345 345 346 350 349 349 352 353 348 346 343 343 347 346 351 348 350 349 349 350 349 349 349 349 348 347 344 343 344 343 344 342
307 306 304 302 303 302 308 309 309 308 309 311 310 298 302 305 309 311 316 314 317 315 314 317 317 318 321 325 341 343 344 344 342 342 342 342 343 342 342 343 343 342 341 342 342 341 342 343 344 344 347 349 348 347 347 346 347 346 345 344 345 346 343 343 344 344 345 345 348 348 349 351 352 350 345 340 344 347 343 341 344 348 347 350 351 350 347 346 345 343 342 343 341 341 341 341 340
301 304 304 300 298 299 307 307 307 306 310 310 310 299 301 306 309 313 316 317 316 312 315 319 318 319 323 326 339 340 344 344 343 344 344 344 342 342 343 343 343 344 342 342 341 342 343 343 344 344 348 347 348 347 347 346 348 345 343 343 345 345 345 345 345 345 344 346 346 349 351 350 352 347 343 346 343 343 340 338 342 347 348 349 352 347 345 345 344 343 342 342 342 339 339 338 337
302 298 296 299 298 301 304 307 307 303 308 310 307 299 301 306 309 315 319 316 317 313 317 319 317 318 326 329 336 335 342 344 345 344 344 344 343 342 343 342 343 343 342 343 342 343 341 343 346 345 347 347 347 347 348 347 347 346 344 343 345 347 343 344 345 345 345 346 346 349 350 351 347 346 344 345 345 345 342 340 345 347 346 346 345 344 343 342 342 342 341 342 339 338 337 337 337
300 298 296 296 298 299 302 305 307 307 307 308 306 299 303 305 310 314 319 316 317 314 315 318 319 323 328 329 335 337 341 342 343 342 343 344 344 343 343 343 343 344 343 342 342 341 342 343 346 346 346 346 346 347 347 347 347 345 345 345 345 347 343 343 344 345 345 346 347 346 349 350 349 348 348 346 344 343 342 340 345 345 345 343 343 341 340 339 339 338 339 339 341 337 336 334 336
296 299 296 299 297 299 298 305 307 307 306 303 306 302 304 306 310 311 314 318 318 314 316 319 317 318 328 331 333 336 339 340 339 339 342 343 343 344 345 342 344 345 343 344 343 342 341 343 344 345 345 346 346 346 348 347 346 345 344 343 345 344 345 345 345 345 345 347 348 347 349 349 349 348 348 348 348 344 344 344 344 343 343 342 341 339 340 339 339 338 338 339 336 336 335 334 333
294 295 295 296 299 300 299 299 304 306 305 303 304 303 303 306 308 310 314 318 317 316 319 317 316 316 326 329 327 328 335 339 339 340 342 344 344 344 344 343 344 344 343 343 342 342 342 344 343 345 344 345 345 347 346 345 345 345 344 344 345 344 345 348 348 346 347 348 347 348 348 347 350 348 348 348 347 344 343 343 343 341 340 340 339 337 337 338 337 337 335 335 336 334 333 334 334
297 298 297 297 296 297 298 302 306 306 303 301 302 301 303 305 306 310 321 320 321 319 318 317 317 317 325 328 325 325 328 338 341 341 342 342 343 343 345 342 344 344 343 344 343 343 342 343 344 344 344 345 345 344 343 342 343 341 340 342 341 341 343 343 345 346 347 345 347 348 348 345 343 345 345 345 343 342 342 340 339 340 339 338 336 336 335 335 335 335 334 333 334 333 333 332 336
300 300 299 297 297 299 302 303 307 308 304 302 303 303 304 304 305 310 319 322 320 319 316 315 316 317 320 324 325 325 326 334 342 342 341 342 342 343 344 342 342 343 343 343 342 342 343 342 342 342 343 345 342 341 340 340 339 340 340 339 338 340 339 341 344 346 346 345 347 347 346 345 344 344 342 341 341 339 339 338 339 337 336 335 334 333 334 334 335 334 333 333 331 332 329 335 333
300 299 298 297 298 296 301 302 305 306 304 302 303 302 303 305 306 308 313 318 315 316 314 313 314 317 319 321 325 329 329 337 339 339 339 341 341 342 342 341 340 339 341 342 342 342 343 343 342 342 343 344 343 340 338 340 342 339 339 337 338 338 338 340 341 344 344 344 345 344 344 344 342 341 340 339 339 338 338 337 337 336 334 334 333 333 333 332 333 334 332 330 331 331 329 333 331
299 298 298 297 298 300 302 303 305 305 304 301 303 301 302 305 306 308 309 310 314 318 317 315 315 316 318 319 324 329 328 333 336 338 338 338 340 340 339 340 340 340 340 341 341 342 342 341 342 343 342 342 341 341 340 338 340 341 340 338 338 339 341 344 341 340 341 341 341 341 341 340 338 337 338 337 337 337 335 335 334 333 332 332 333 332 331 332 332 332 331 330 323 327 327 330 332
297 297 297 296 299 297 295 301 304 304 303 301 302 301 302 305 307 308 310 309 312 317 318 318 318 316 317 321 325 327 330 333 334 336 336 336 337 338 339 339 340 340 340 342 338 339 341 340 341 341 342 342 342 341 341 342 341 343 342 342 342 341 339 340 341 339 338 337 336 337 337 336 335 335 335 335 335 335 335 333 332 332 331 331 331 331 330 329 331 331 330 329 327 323 323 322 330
298 298 298 297 298 299 299 299 302 304 305 304 302 300 300 303 302 304 308 310 310 312 317 319 319 319 318 324 325 328 330 334 334 334 335 335 336 336 337 338 339 338 338 337 338 338 340 342 341 341 341 341 340 340 341 343 342 341 341 341 341 339 339 337 336 334 335 335 335 335 334 334 333 333 335 335 333 334 333 332 331 331 330 329 330 328 327 329 329 329 329 329 329 324 319 321 323
296 299 300 299 300 300 300 301 301 299 298 301 300 293 294 301 302 302 305 306 306 309 311 316 317 317 317 319 321 328 333 336 336 334 334 335 335 336 337 338 337 338 338 337 339 338 341 340 342 341 341 341 340 341 342 342 341 339 338 335 334 334 331 331 331 332 331 331 332 334 334 333 332 332 332 334 333 333 331 329 330 329 328 328 328 327 329 329 329 328 327 326 324 324 320 317 315
294 296 301 300 300 300 301 300 299 294 292 299 302 292 290 300 300 302 304 304 305 308 308 313 316 317 318 317 320 326 331 333 335 335 334 335 335 335 336 336 338 337 339 339 339 336 338 342 343 342 341 341 341 341 342 341 339 339 339 336 335 334 332 333 335 336 334 333 333 333 331 332 331 332 332 333 332 331 330 329 329 327 325 325 326 327 326 326 326 325 326 324 322 322 321 313 312
293 301 301 301 300 300 300 300 299 297 300 301 301 298 293 293 298 303 305 304 304 305 307 311 315 318 318 318 323 328 330 332 334 334 334 335 335 335 334 336 337 337 340 339 340 339 338 341 342 342 342 340 341 342 341 341 339 338 338 337 336 335 334 334 335 334 334 331 330 330 330 330 331 332 331 329 331 329 329 328 327 325 323 323 323 323 324 324 322 322 323 323 324 325 324 319 316
296 301 302 300 300 300 300 299 298 298 297 294 297 300 293 293 299 305 304 301 302 303 305 309 314 317 318 320 324 327 331 333 334 334 334 334 335 335 335 336 338 339 339 338 339 340 338 341 342 341 340 340 341 342 341 340 340 339 339 337 336 336 335 334 333 332 329 330 329 329 329 330 332 331 330 329 328 328 328 326 325 323 322 321 321 321 322 322 321 320 320 319 320 320 320 319 315
299 303 303 302 301 300 301 299 297 297 295 291 295 298 292 293 298 301 304 302 302 303 305 309 314 316 318 321 324 326 330 334 334 336 335 335 336 336 337 337 338 339 340 340 341 340 337 340 340 340 339 340 341 341 341 340 341 339 340 339 337 336 334 332 331 329 329 329 328 328 329 329 329 329 328 328 328 329 326 325 322 322 322 320 319 319 319 319 318 317 317 318 318 318 318 318 317
303 302 300 299 299 298 299 299 298 296 289 292 297 299 296 290 297 298 299 301 303 305 306 310 315 315 318 322 324 327 329 332 333 334 335 335 336 337 336 335 337 338 339 339 339 340 338 338 339 339 340 340 341 341 341 340 340 339 341 340 339 335 333 331 329 328 328 328 327 327 327 327 328 327 327 327 327 327 326 324 322 320 321 320 318 316 315 313 314 315 316 317 317 316 315 316 316
300 297 296 297 295 297 296 295 297 289 288 294 298 298 298 289 295 300 303 306 307 308 308 311 315 316 317 321 324 326 328 332 334 333 334 334 334 335 334 334 337 337 337 337 338 340 338 337 337 338 340 340 340 340 341 339 339 340 341 340 336 334 332 330 329 328 328 326 327 326 327 327 327 326 326 325 324 325 325 322 321 321 320 320 317 317 315 314 314 313 314 315 315 316 316 315 315
296 295 296 291 288 289 285 290 285 287 287 295 298 298 295 294 299 303 304 305 308 312 311 311 314 316 317 320 325 327 327 332 333 333 333 333 333 332 332 334 336 335 335 336 337 338 338 339 338 338 338 339 339 340 340 340 340 341 341 338 337 334 332 332 330 329 329 327 327 326 326 325 325 324 324 324 324 323 324 321 321 320 318 319 317 316 315 314 314 313 314 314 315 315 316 317 315
294 293 293 290 286 285 282 286 289 289 293 298 297 299 294 300 302 306 305 307 308 313 314 315 316 317 317 321 325 325 327 329 332 333 334 333 333 332 332 334 335 335 336 336 337 338 338 338 338 338 338 339 340 339 339 340 341 340 340 338 335 334 333 332 332 330 329 328 327 326 326 326 324 324 323 323 323 323 322 322 321 320 318 317 316 315 313 313 313 311 312 311 312 313 314 314 314
294 297 295 292 292 287 282 286 283 286 290 294 300 295 292 294 298 307 307 309 310 313 315 316 317 318 321 325 322 324 326 321 327 332 333 333 333 333 332 333 335 336 336 336 336 336 337 336 337 337 337 339 339 339 339 340 339 340 338 339 338 337 333 333 332 331 330 329 328 327 327 327 326 325 324 324 323 322 322 321 319 317 317 316 314 314 313 313 313 312 312 312 312 312 313 313 313
296 297 299 294 292 297 289 291 291 291 291 292 294 293 299 298 308 309 310 309 309 313 315 315 314 318 321 320 318 321 324 326 329 331 333 335 334 333 332 333 335 336 336 336 336 336 336 336 338 337 337 338 339 339 339 339 339 339 339 335 336 336 334 333 332 331 330 330 329 327 327 328 326 325 325 324 323 322 320 318 318 316 316 315 314 312 312 312 313 312 311 311 310 311 311 311 311
293 295 291 295 301 298 293 292 297 295 292 289 296 296 300 305 308 309 310 309 308 312 314 313 313 317 320 318 316 320 323 326 323 324 331 334 335 334 333 334 334 335 336 335 336 337 338 337 336 336 336 338 338 339 339 339 339 338 337 336 335 335 335 333 331 331 332 330 329 329 327 326 326 326 324 323 321 321 320 318 317 316 315 314 314 313 312 311 311 311 311 311 311 312 311 311 311
295 290 295 301 303 301 295 287 290 289 287 288 295 293 295 296 292 305 308 308 307 311 312 312 315 317 315 316 317 319 323 327 329 331 334 335 335 335 334 335 335 336 336 336 336 337 338 338 337 336 335 337 338 338 338 338 337 337 337 335 335 334 333 331 331 331 331 329 328 328 327 324 323 325 324 322 321 320 319 318 317 316 315 314 313 312 311 312 312 311 311 311 310 311 310 310 310
296 294 302 293 288 288 295 291 284 285 284 287 293 295 296 297 298 303 305 305 306 309 312 311 312 314 314 316 317 320 323 326 329 330 332 333 333 334 334 335 335 336 336 337 338 337 337 338 338 337 336 337 338 338 338 338 338 336 335 335 334 334 334 331 331 330 329 326 324 324 324 323 323 322 322 321 319 319 318 317 316 315 314 313 313 312 311 311 311 310 310 309 310 310 309 309 310
300 301 297 300 297 293 291 290 293 292 286 286 289 294 291 300 301 305 306 307 307 309 310 310 311 312 315 317 318 319 322 325 322 327 331 333 334 334 334 335 335 335 335 337 337 337 337 337 337 338 338 338 339 338 338 336 336 336 335 335 335 333 333 331 329 328 326 324 322 322 323 323 322 322 321 321 319 318 317 316 315 314 313 313 311 311 312 311 311 310 310 309 310 309 308 308 308
293 293 292 294 295 299 297 297 293 290 288 288 288 287 294 302 306 306 308 309 309 310 310 310 312 315 317 319 321 321 322 324 327 330 332 334 335 335 334 336 336 336 336 336 336 335 335 337 338 337 337 337 337 337 336 334 334 335 334 334 332 331 330 329 328 326 324 322 322 322 322 322 321 320 320 319 318 317 316 315 314 314 313 312 311 311 312 311 311 310 310 309 309 308 308 308 307
294 293 291 293 291 290 287 287 297 295 292 288 288 287 298 305 308 308 308 311 311 310 311 312 313 316 319 320 321 322 323 325 324 325 333 335 336 335 335 335 337 336 335 334 334 335 335 334 334 336 337 336 336 335 335 334 335 334 333 332 331 330 327 325 326 325 322 320 321 322 322 321 320 319 318 317 317 317 317 315 313 313 312 312 311 311 310 311 309 310 309 309 309 308 307 307 308
Wind_Speed
15 11 9 7 6 6 7 8 7 9 11 6 4 9 5 4 2 11 5 6 6 7 5 5 2 3 9 9 9 11 13 11 8 6 5 4 4 9 7 11 15 16 16 15 15 14 14 15 15 15 14 13 12 12 11 10 9 9 10 9 8 8 8 8 8 9 9 9 9 10 10 9 10 10 10 9 11 11 12 11 10 10 9 11 12 13 12 12 13 13 14 13 13 13 12 11 11
12 12 10 6 5 7 6 8 9 8 9 6 5 7 7 6 8 7 5 3 8 7 3 4 3 8 2 6 2 5 10 9 10 9 8 7 10 9 9 13 14 16 15 15 14 13 13 14 15 14 14 13 12 12 11 10 9 9 9 9 8 8 8 8 8 8 9 9 8 9 9 10 10 9 9 8 9 11 11 11 12 11 9 10 13 13 13 13 13 13 13 12 12 11 11 10 9
11 10 9 6 8 6 10 9 12 7 8 7 5 4 1 8 3 3 6 6 3 4 2 5 2 3 6 4 2 5 5 5 8 10 7 11 11 9 12 13 13 15 16 13 13 13 12 14 15 15 14 13 12 12 11 10 9 9 9 9 8 8 8 8 8 8 8 9 9 9 9 10 10 10 9 8 8 11 11 11 12 11 11 10 12 13 12 12 12 12 12 11 11 10 9 9 7
11 8 7 7 7 6 9 8 11 11 9 9 6 2 10 6 7 4 3 4 6 5 0 3 3 8 9 4 3 5 4 6 7 7 7 9 7 12 13 13 14 13 13 12 13 13 12 15 15 14 14 13 12 12 10 10 9 10 10 9 8 8 8 8 7 8 7 8 9 8 9 11 11 11 11 9 10 11 10 10 10 12 12 11 11 12 12 11 11 11 10 11 10 9 8 6 5
9 7 5 5 7 8 8 9 11 7 9 5 5 8 5 3 5 1 6 2 6 3 3 5 5 2 1 6 4 2 5 6 7 6 8 9 15 13 14 14 12 12 12 13 13 14 14 19 15 14 13 14 12 11 10 10 10 10 9 9 9 9 9 8 8 8 8 8 8 8 9 10 11 11 11 11 10 10 10 10 10 10 11 11 10 9 10 10 10 10 10 9 9 7 6 4 4
9 8 6 5 5 7 8 6 9 9 3 5 8 8 4 5 4 1 6 4 4 3 3 3 6 1 8 5 4 5 3 2 5 8 9 10 15 15 15 13 12 12 13 12 14 12 13 19 16 14 13 13 12 11 10 11 11 11 10 10 10 10 9 9 9 8 7 8 8 8 8 9 10 11 11 11 10 10 10 9 9 10 10 10 11 11 10 10 10 9 9 8 7 6 4 2 2
5 7 5 7 8 6 9 10 12 11 7 9 1 8 8 6 5 6 7 6 3 2 2 5 3 6 9 5 9 9 8 4 4 7 10 14 15 15 14 12 12 13 13 11 12 13 17 16 16 15 14 13 12 12 12 11 11 11 11 11 10 10 9 9 9 9 8 7 8 9 9 9 10 10 10 10 10 9 9 9 9 9 10 9 10 10 10 10 10 9 8 7 5 4 3 2 1
5 5 4 5 7 7 9 11 13 12 6 17 2 2 6 3 6 3 4 10 8 5 4 2 2 5 8 11 4 6 10 10 12 14 16 14 15 15 13 12 13 13 12 12 13 13 17 16 15 15 14 13 12 12 12 12 11 12 12 11 10 11 10 10 10 10 9 8 8 8 8 8 8 8 8 9 9 9 7 9 9 8 9 9 8 9 9 9 9 8 7 6 4 4 3 2 2
6 7 3 6 10 8 10 12 11 13 8 6 3 2 8 5 5 4 2 3 8 4 4 5 8 10 5 4 7 8 9 12 13 13 15 15 15 13 10 13 13 12 13 14 14 14 14 15 14 14 14 13 12 13 13 13 12 12 11 12 12 11 12 11 11 11 10 9 8 7 7 7 7 7 7 7 7 8 7 7 8 8 8 9 9 9 9 8 8 6 6 5 4 3 3 2 2
7 5 5 6 8 13 13 12 13 12 14 9 11 12 11 3 3 7 3 8 8 8 8 4 6 7 3 8 8 5 8 9 12 14 14 14 13 12 12 12 13 14 14 13 12 12 12 15 13 12 11 12 12 13 14 13 12 12 12 12 12 12 12 12 11 11 10 9 9 7 7 6 6 6 6 6 6 7 7 7 7 7 7 7 8 7 7 7 7 6 5 5 4 3 3 1 2
7 6 7 9 10 13 15 13 14 11 16 11 12 7 5 6 4 4 3 8 3 4 4 4 6 4 7 6 8 4 7 10 12 14 14 13 12 12 11 12 12 12 14 14 12 13 13 12 14 11 11 10 10 12 12 12 13 13 14 14 13 12 12 11 12 11 10 9 7 7 6 5 5 5 5 6 6 7 8 7 7 7 7 6 7 7 7 6 6 6 5 4 3 3 2 3 2
9 10 8 10 11 13 14 13 14 12 16 13 11 12 7 13 4 7 5 13 5 6 4 5 7 6 3 10 4 5 7 10 13 13 13 12 11 12 11 10 12 12 13 14 13 12 13 13 12 12 11 12 13 13 12 13 14 14 14 14 13 12 12 12 12 11 10 9 8 7 6 5 5 5 5 6 6 7 7 8 7 7 6 6 6 6 6 6 5 5 5 5 4 3 4 2 3
11 9 12 10 11 14 16 17 16 16 14 15 14 15 11 14 9 10 6 2 5 10 5 8 8 5 4 4 6 7 9 10 12 13 13 11 12 10 10 11 11 12 12 14 12 13 13 12 12 11 12 14 12 13 13 15 14 14 14 14 13 13 12 12 11 10 10 9 9 8 7 6 6 6 7 7 7 7 7 7 7 8 7 5 5 5 5 5 5 5 5 5 4 4 3 3 3
10 11 12 15 12 14 15 15 15 16 15 15 14 16 11 10 14 7 5 4 12 7 7 6 7 7 8 6 7 7 8 10 13 12 11 13 11 10 12 10 10 11 11 12 12 12 12 12 12 11 12 12 13 14 16 14 14 14 13 13 13 12 13 12 11 11 10 9 9 8 8 7 7 7 7 7 7 8 7 7 6 6 7 6 5 4 4 4 4 4 3 4 4 3 4 3 4
13 10 12 14 14 16 15 14 16 17 14 17 17 16 9 13 7 7 9 8 6 9 6 4 7 9 7 8 1 7 12 13 12 13 13 12 12 11 10 11 10 8 12 11 11 11 11 11 12 11 12 13 13 11 11 14 15 14 13 14 13 13 12 12 11 10 10 10 9 9 9 9 8 8 8 8 8 8 8 7 7 5 6 6 6 5 4 4 2 3 2 3 4 4 4 6 6
8 9 10 14 18 17 15 19 18 19 16 16 16 14 13 14 8 8 12 4 4 5 3 3 4 6 3 5 1 14 15 15 11 11 12 11 11 10 8 9 9 9 10 9 10 9 10 11 10 10 11 12 12 11 12 13 15 15 14 14 13 13 12 11 11 10 10 9 9 10 10 9 9 8 9 8 8 7 7 8 7 6 6 6 6 5 4 3 3 2 3 3 5 5 7 7 8
9 10 13 14 19 19 16 17 16 18 16 18 11 14 13 16 12 12 4 3 12 5 6 3 8 6 13 2 13 18 16 14 12 13 12 11 10 9 8 8 8 7 7 9 9 9 9 11 11 10 12 12 12 11 11 12 13 15 13 14 13 13 12 11 11 10 10 8 9 10 12 8 7 8 10 8 10 8 7 5 7 7 6 6 6 5 4 4 4 4 4 6 5 8 8 10 10
9 13 14 18 18 19 15 18 16 18 18 13 13 17 13 19 12 12 6 12 10 11 4 8 6 10 1 6 14 17 17 16 14 14 12 12 9 9 9 9 9 9 8 8 9 10 9 10 12 11 10 12 12 10 9 10 11 12 12 11 10 11 11 11 10 9 9 7 10 9 8 5 5 7 7 9 7 8 8 7 7 7 7 5 6 6 5 7 6 7 6 8 9 8 12 8 9
13 11 14 18 16 15 18 16 18 14 16 8 14 17 17 19 19 8 5 13 15 15 12 6 7 9 9 8 15 16 17 16 15 13 13 13 11 10 9 9 10 10 9 8 8 10 9 9 10 11 12 12 12 11 10 10 12 10 11 10 9 11 11 11 9 9 8 8 8 7 5 4 4 5 6 7 7 8 8 8 8 8 8 8 7 8 7 8 9 8 10 9 12 13 9 9 8
16 14 17 18 18 20 20 21 16 17 7 8 9 13 18 19 20 9 10 7 14 15 10 12 7 7 14 14 15 15 15 15 14 14 13 13 13 11 10 11 10 9 10 8 9 9 10 9 11 11 12 12 10 7 9 10 9 9 8 8 8 8 9 8 8 8 8 7 6 4 4 4 4 4 6 10 10 7 6 7 8 9 8 9 9 7 10 10 12 12 11 13 11 9 8 9 7
14 18 18 17 20 20 21 21 20 18 14 10 11 14 15 16 12 12 15 9 11 12 9 12 12 15 12 13 13 14 14 14 13 13 13 13 13 10 10 10 10 10 10 9 9 9 10 10 10 10 11 11 11 9 9 9 9 8 8 7 7 7 7 6 6 5 4 4 5 4 5 5 5 5 6 5 4 3 7 7 7 7 8 8 12 8 8 7 10 9 8 10 7 9 7 3 5
13 20 23 24 22 23 23 21 20 19 13 11 17 19 18 13 13 17 20 17 10 9 11 16 12 5 16 12 11 13 14 14 14 14 13 11 15 11 11 10 9 9 10 9 10 10 11 10 10 9 11 10 10 8 8 9 9 7 7 7 7 6 6 6 5 5 5 5 4 5 4 4 5 5 4 5 5 7 4 5 5 6 6 7 9 3 5 5 5 8 10 9 7 1 1 1 3
18 19 23 26 26 23 19 22 20 19 15 14 18 19 17 19 16 17 19 18 10 13 9 7 3 3 14 10 13 14 14 15 15 15 13 13 14 12 10 10 10 9 8 10 9 10 10 10 11 10 10 10 10 9 9 8 7 7 6 6 7 6 5 5 5 5 5 6 5 4 4 4 4 5 2 2 4 7 10 7 5 5 6 3 6 3 8 1 1 3 2 2 5 3 3 1 3
20 18 21 25 24 26 24 20 19 21 22 19 17 18 20 17 19 14 16 14 13 17 16 4 5 4 4 12 14 14 15 14 15 13 13 11 12 11 10 10 11 9 10 10 11 10 10 12 11 10 10 9 9 9 8 8 7 7 6 6 5 5 6 6 5 5 5 5 5 3 3 3 3 4 7 8 8 5 4 5 6 3 1 3 2 5 1 3 6 2 4 2 1 2 0 3 3
23 23 23 22 23 25 24 24 20 21 23 17 17 22 21 19 16 14 17 15 14 16 12 5 8 10 8 7 13 13 14 14 14 13 11 10 9 11 11 9 11 11 10 12 11 10 11 11 11 12 10 11 9 8 8 7 7 6 7 6 5 6 4 5 6 5 5 5 4 4 4 3 3 3 3 3 3 3 2 1 2 2 5 5 4 2 2 4 3 4 1 2 2 1 1 0 2
23 26 22 21 25 24 20 22 25 24 16 17 18 24 21 20 15 19 17 17 14 16 15 10 7 8 10 9 12 12 13 14 14 13 13 11 12 12 12 11 11 10 10 10 11 11 11 12 12 13 10 10 9 8 7 7 7 7 6 6 6 6 5 5 5 6 5 4 4 4 4 3 3 3 2 3 2 2 1 1 3 1 2 5 3 3 0 2 3 3 4 2 1 2 2 3 3
19 25 26 24 27 24 22 26 29 27 21 18 20 24 22 18 15 14 14 18 13 16 19 10 9 10 12 9 11 11 13 14 14 13 13 12 13 13 12 13 12 11 11 12 11 10 10 12 11 11 11 9 8 8 7 7 7 6 6 6 5 6 5 5 6 5 4 4 4 3 4 3 3 2 3 3 5 2 1 1 2 3 1 2 3 2 1 2 2 1 4 1 4 3 2 2 3
22 23 24 25 22 26 23 19 23 21 22 22 18 23 20 20 19 18 14 16 15 15 19 10 9 11 12 10 12 11 11 12 13 14 16 15 13 12 13 12 13 13 13 12 10 11 11 12 12 11 10 9 8 8 7 7 7 7 6 5 6 6 7 6 6 4 4 4 3 3 2 3 3 1 5 7 3 5 4 3 2 2 2 3 1 4 3 2 2 3 3 3 1 2 2 2 2
22 26 20 24 25 26 28 22 20 23 23 19 18 22 22 22 23 22 17 12 17 19 14 7 11 13 16 11 11 11 11 13 13 13 14 13 12 12 15 12 13 11 9 12 10 12 13 12 11 11 11 10 9 9 7 7 7 7 7 6 6 6 7 6 4 4 4 3 3 3 3 2 1 4 1 3 8 8 5 1 2 3 1 2 3 2 3 1 0 0 1 1 2 1 1 2 3
16 20 14 15 18 24 27 20 22 25 20 18 16 18 19 24 25 22 14 15 12 14 14 14 14 14 14 11 11 11 11 13 14 14 14 13 14 14 14 13 12 11 11 10 10 12 11 9 8 9 10 10 10 8 8 7 7 7 6 5 6 6 5 4 3 4 4 3 3 2 3 2 1 3 3 2 3 1 4 9 5 2 2 4 4 2 1 2 2 2 2 2 2 1 3 1 2
16 18 17 15 16 20 23 20 24 26 19 21 19 19 19 21 23 21 15 17 17 15 17 16 16 15 14 12 11 11 12 13 13 14 15 14 13 13 15 13 12 12 10 11 14 13 12 10 9 9 10 11 10 9 8 8 7 6 6 6 6 6 4 4 3 3 4 3 3 2 3 2 3 4 3 1 2 3 2 1 6 2 3 3 4 4 2 3 2 3 4 4 3 2 2 2 1
15 17 18 15 20 17 21 24 25 25 21 25 22 20 20 21 20 19 16 17 18 19 18 19 17 15 14 12 13 14 13 12 13 14 14 15 14 13 15 14 13 13 13 13 13 13 13 12 11 10 12 11 11 10 8 7 7 6 5 6 6 5 5 4 4 4 3 2 2 2 1 1 3 1 4 6 1 1 1 1 4 1 3 4 4 4 2 1 3 2 3 3 2 2 1 1 2
17 18 16 20 20 20 19 26 25 32 24 23 27 21 18 19 21 18 18 22 21 21 20 19 17 15 14 14 13 12 13 14 13 14 15 14 13 11 12 14 14 13 13 14 14 14 13 13 12 12 12 12 11 10 9 8 7 7 7 6 6 6 4 4 4 3 3 2 3 2 1 1 2 4 4 7 6 3 5 4 1 3 3 3 4 3 3 3 3 2 2 3 4 3 2 1 3
16 17 19 20 25 24 22 19 27 26 28 22 28 25 23 16 17 21 20 19 20 19 19 18 17 16 15 12 11 13 13 14 15 15 16 14 13 13 13 14 14 15 14 14 15 14 14 13 12 11 12 11 10 9 9 8 8 7 6 7 6 5 5 3 3 3 3 2 2 1 2 2 1 2 1 1 3 4 3 4 4 4 4 3 3 1 2 2 3 4 3 2 4 3 5 2 2
19 20 21 22 25 29 25 23 19 24 27 30 27 27 26 23 22 18 15 19 20 20 18 18 18 18 15 12 10 13 13 14 15 14 16 13 14 13 14 15 14 14 12 15 14 14 13 12 11 11 12 11 11 10 9 9 9 8 6 6 6 5 5 4 3 3 2 2 2 2 2 2 1 2 2 2 1 3 3 4 4 5 4 3 3 3 1 2 0 0 1 2 1 2 2 1 3
25 23 21 21 21 23 23 25 23 23 24 26 30 26 25 24 24 13 13 13 16 17 16 15 16 17 15 13 13 12 14 13 13 14 15 13 11 12 11 14 13 12 14 12 14 15 14 13 11 11 11 11 10 10 9 9 8 8 8 7 6 6 5 5 4 3 2 3 3 2 1 3 1 1 3 3 3 3 3 4 4 3 4 4 3 2 3 3 3 4 2 2 3 4 1 2 3
24 24 22 20 21 21 22 26 25 24 22 24 26 31 27 21 25 20 15 18 18 17 17 16 16 16 16 15 14 15 17 15 13 15 14 14 13 11 11 13 11 13 14 13 14 14 14 13 12 12 11 11 9 7 8 9 9 8 7 7 7 7 6 6 4 4 3 4 3 3 2 3 4 3 3 4 3 3 3 3 2 3 2 2 1 2 2 2 2 2 2 1 1 2 3 4 9
23 20 22 19 22 20 23 22 24 25 25 22 25 26 28 23 25 27 25 24 21 21 20 20 20 18 15 17 18 16 15 12 14 14 16 14 14 14 11 10 11 14 13 14 15 14 13 12 13 12 11 11 10 10 10 8 8 8 8 8 7 7 7 6 5 4 4 4 4 4 3 3 4 4 4 4 3 3 3 2 2 2 2 1 1 0 0 2 4 4 1 2 1 1 2 3 7
23 20 18 19 19 19 21 24 23 23 25 21 22 25 24 25 24 23 24 23 18 19 20 21 21 20 17 16 16 15 14 15 16 16 17 16 16 16 13 10 11 11 13 13 12 11 11 12 12 11 10 10 10 9 8 9 9 8 8 7 6 5 4 3 5 5 4 5 4 4 4 4 4 4 4 3 3 3 3 2 2 1 1 2 3 1 1 1 1 2 3 1 3 2 1 2 2
19 19 19 17 17 20 17 22 23 22 19 18 22 22 18 22 23 24 24 25 23 21 23 22 20 20 18 17 15 15 16 16 18 19 18 17 17 16 13 13 13 12 13 10 11 11 11 10 11 12 11 10 10 11 10 10 9 8 7 6 6 6 7 7 7 6 6 6 5 4 5 4 4 3 4 3 2 3 1 0 3 2 0 2 1 1 2 1 2 3 2 1 2 4 3 2 3
21 23 18 16 17 17 16 15 23 24 22 14 16 17 16 17 19 20 23 24 23 20 22 22 21 19 18 16 16 15 16 17 18 18 17 17 17 17 16 15 14 14 14 12 12 10 9 15 15 14 13 11 10 11 11 9 9 8 6 7 7 7 7 6 6 6 6 6 6 6 5 5 4 3 3 2 1 1 2 2 3 2 1 1 1 2 2 2 3 3 2 1 2 1 4 3 2
17 24 18 18 20 20 21 23 23 15 15 17 19 14 16 17 22 22 18 19 23 22 21 22 22 21 20 20 17 16 16 17 17 19 19 19 18 17 17 16 15 15 15 14 12 7 10 14 15 15 11 11 11 13 12 9 9 10 10 9 9 7 7 7 7 8 8 7 7 6 6 5 5 4 3 1 2 2 1 1 1 2 3 2 2 3 3 3 4 3 3 2 3 3 3 3 3
18 17 18 21 23 19 20 20 16 15 17 18 22 18 13 15 19 19 20 21 24 21 21 21 20 20 20 18 17 16 17 17 17 16 19 19 18 18 17 17 17 17 16 15 15 18 16 16 16 16 14 12 13 13 13 10 11 11 11 11 10 9 8 7 6 6 8 7 6 6 6 5 4 4 2 1 0 1 1 1 2 2 4 4 3 3 4 4 4 4 3 3 2 2 0 3 2
17 14 19 21 20 22 22 22 19 13 14 16 22 18 16 15 17 20 20 22 22 23 23 23 21 21 20 19 18 18 17 17 17 19 19 20 19 19 19 19 17 17 17 17 15 13 17 16 17 16 13 13 13 12 13 11 11 10 11 10 8 8 9 8 8 8 6 6 6 6 6 4 3 1 1 1 1 2 2 2 2 3 3 4 4 4 4 4 4 5 5 4 4 3 2 1 2
14 17 17 20 13 15 20 21 18 16 14 14 16 21 15 16 15 18 22 23 24 25 26 25 24 22 21 20 19 19 19 19 19 18 20 21 19 19 18 18 17 16 17 18 17 13 15 16 16 14 13 13 14 15 14 14 11 10 11 8 8 7 8 9 8 7 7 6 7 6 5 5 3 1 1 2 2 2 2 3 3 3 3 4 4 5 5 6 6 6 5 5 4 4 4 4 3
20 17 18 18 18 17 16 16 17 16 15 14 18 19 14 14 17 16 19 23 24 26 27 25 24 23 21 20 20 19 18 17 18 19 19 20 19 18 18 18 15 15 16 18 16 14 14 13 15 16 16 13 13 16 14 14 13 11 9 9 10 8 9 9 8 9 7 7 7 6 5 4 3 3 3 2 2 4 3 3 4 4 4 5 6 6 7 7 6 6 6 6 6 6 5 5 5
12 18 16 15 17 17 12 12 15 13 14 17 19 21 17 14 15 18 17 18 22 20 18 19 22 22 22 21 21 19 18 18 17 18 18 18 18 17 18 17 16 17 16 16 16 16 16 15 14 16 16 14 15 15 15 15 14 12 10 10 11 12 12 11 10 10 7 7 7 6 5 4 4 4 4 2 2 3 2 3 4 5 5 5 5 6 6 6 6 6 7 8 7 7 6 6 6
20 16 17 14 14 15 14 12 12 14 15 19 21 21 23 16 12 17 22 19 20 19 20 23 22 23 22 20 20 21 20 18 18 19 20 19 19 19 18 18 18 17 16 16 15 16 17 16 15 16 16 16 15 15 15 15 12 11 11 11 12 12 12 10 12 13 11 9 8 7 5 4 4 5 4 4 3 3 3 4 4 5 5 5 5 5 5 6 5 6 6 6 6 6 6 6 5
18 17 18 16 13 13 15 15 15 15 16 16 22 25 17 18 14 14 20 23 17 18 17 19 22 23 23 22 22 19 18 18 19 19 19 19 19 20 19 20 20 20 19 19 17 16 16 16 18 18 18 17 15 16 16 15 13 11 11 12 10 9 11 12 12 12 11 10 8 8 7 6 6 5 4 4 5 5 4 4 4 5 5 5 6 6 6 6 6 6 6 7 6 6 6 6 5
19 20 19 18 16 16 14 15 11 14 19 19 19 23 17 13 18 21 15 17 18 17 17 18 21 22 23 22 20 19 19 20 18 18 19 20 19 19 21 19 20 19 18 18 17 16 16 15 18 18 18 17 15 15 15 15 13 12 10 11 10 9 12 12 10 11 11 9 8 8 8 7 6 6 5 5 5 6 5 5 5 6 6 6 6 6 6 6 6 7 7 6 7 6 6 7 6
19 19 20 17 15 14 15 16 18 18 15 18 18 15 12 19 12 17 22 15 13 18 18 17 18 21 20 19 20 20 20 21 20 19 20 20 21 21 20 18 19 18 19 18 17 17 16 17 18 18 18 18 17 16 15 15 13 11 12 7 8 7 10 10 10 9 10 10 10 9 7 7 6 5 5 5 6 6 6 6 6 6 6 7 7 6 6 7 6 7 6 6 6 5 6 6 6
18 20 20 19 19 13 15 10 14 16 15 14 16 11 14 16 1 8 15 23 13 12 15 17 18 19 20 18 20 19 18 19 20 19 19 20 21 21 19 18 18 18 19 17 19 17 16 17 17 19 19 18 17 17 15 15 12 11 13 10 9 10 10 10 10 9 9 9 10 9 7 6 6 6 4 6 7 7 7 7 7 7 7 7 7 7 7 6 6 6 6 6 7 5 6 7 6
15 17 21 19 16 16 10 8 10 4 9 13 8 12 14 13 9 10 8 15 19 14 14 15 16 18 18 18 18 19 18 18 19 20 20 21 21 20 20 19 17 18 18 20 19 19 18 18 19 19 19 17 17 17 15 14 11 13 12 12 12 10 12 12 12 12 11 10 10 8 7 6 6 5 6 7 8 8 7 7 8 8 7 7 7 6 7 7 6 6 6 6 6 5 5 5 5
13 17 19 20 21 15 10 11 8 9 12 8 15 17 17 15 11 13 10 15 18 17 17 18 17 19 20 18 17 18 19 18 19 20 20 23 23 23 21 19 19 18 19 18 19 18 16 17 19 19 19 19 18 17 16 14 15 13 13 13 13 14 12 12 12 13 10 11 9 8 8 7 6 5 7 7 8 9 8 8 8 7 7 7 7 7 7 7 6 6 6 6 6 5 5 4 4
16 16 15 19 14 18 14 7 12 14 11 9 16 19 16 16 11 12 16 17 14 16 16 17 19 19 19 18 19 19 19 18 18 18 18 20 20 21 21 21 21 20 17 18 18 18 16 17 18 18 20 20 19 15 14 13 13 11 10 12 14 13 12 13 10 12 11 10 10 9 8 7 8 9 8 9 9 9 8 8 8 8 7 7 7 7 7 6 6 6 6 6 5 4 5 5 4
21 15 18 17 15 16 15 9 8 11 12 11 15 20 13 14 14 15 15 18 18 17 17 18 18 18 16 16 18 18 18 17 19 19 19 20 21 23 23 22 22 22 20 18 19 17 19 19 19 18 17 17 17 16 15 15 12 10 10 11 13 13 13 14 11 11 11 11 10 9 9 9 9 8 9 10 9 10 9 9 8 8 8 8 8 7 6 7 6 6 5 5 5 5 6 5 5
17 15 15 15 13 11 12 10 13 10 11 11 9 11 12 13 13 14 14 14 17 17 17 16 16 17 17 16 16 16 17 17 17 19 19 21 21 21 21 20 19 19 17 15 16 17 16 16 18 18 19 18 17 16 15 13 11 10 12 12 11 12 13 11 12 12 11 11 9 9 9 8 9 9 10 10 10 10 10 9 9 9 9 8 8 7 6 6 6 6 5 6 5 5 5 5 5
16 13 15 17 18 17 18 14 11 13 12 12 9 10 8 10 11 13 15 13 14 17 17 16 17 18 17 15 16 15 16 18 19 19 20 20 20 20 19 19 17 18 19 18 17 15 17 17 17 19 18 17 18 15 13 15 14 11 13 12 14 13 11 10 11 12 11 11 10 9 9 9 9 10 10 10 10 9 9 9 9 9 9 8 8 8 7 6 6 6 6 4 5 5 6 6 5
Wind_Direction
294 293 320 303 268 259 263 222 246 194 228 201 108 232 111 266 303 178 121 140 205 73 67 117 181 236 7 28 20 57 34 23 9 349 44 94 170 119 145 116 125 123 123 123 128 134 133 129 129 129 133 132 129 129 128 124 120 119 115 119 121 121 122 119 119 120 115 113 115 111 115 119 109 102 98 101 100 99 101 100 97 99 105 110 112 112 115 112 108 109 106 105 102 95 91 92 84
305 307 296 289 275 291 244 209 245 227 229 164 179 227 134 158 253 29 113 108 29 66 16 110 122 63 347 31 345 82 66 34 37 68 84 108 133 136 128 129 129 125 125 125 133 134 133 132 129 129 133 130 130 131 127 127 120 118 118 118 122 120 121 118 124 125 123 121 120 117 106 101 100 99 94 83 96 102 98 101 107 109 105 108 105 112 115 117 113 109 107 104 106 103 93 88 85
302 302 299 270 265 234 294 272 257 221 217 198 150 237 128 200 76 123 52 40 73 66 123 83 157 142 126 210 291 37 51 15 63 81 92 131 135 130 141 133 127 125 124 129 132 135 134 133 130 130 132 131 131 134 132 129 125 125 123 123 118 116 117 127 125 126 130 116 105 101 106 102 101 98 97 97 94 96 101 108 112 111 112 106 112 111 110 108 110 111 109 106 105 101 94 82 77
280 278 286 316 315 266 260 257 255 252 215 206 181 152 232 14 117 87 83 86 99 209 353 155 188 79 332 83 134 48 130 79 38 107 123 178 128 145 136 129 128 125 125 131 138 133 129 130 131 132 135 135 136 140 132 130 130 132 127 121 123 120 117 111 120 119 109 118 114 114 109 106 104 103 102 96 89 86 91 101 108 120 124 122 120 118 115 114 116 113 112 109 102 101 95 86 74
256 254 237 298 294 281 276 247 238 234 240 156 233 159 201 156 110 94 90 130 106 322 288 75 239 48 143 62 331 72 80 73 64 82 101 92 117 138 133 132 132 128 130 134 132 125 127 131 132 133 137 139 140 140 138 136 138 134 131 128 127 123 118 116 111 117 127 119 117 113 107 107 109 106 100 95 92 89 86 85 94 101 110 120 120 121 116 118 114 115 109 106 104 98 95 94 70
258 241 224 254 274 347 280 269 244 213 203 232 142 186 127 88 96 327 114 89 73 274 75 256 344 143 112 46 56 131 306 214 97 99 109 122 130 132 131 135 129 131 128 125 119 125 132 131 133 134 138 142 143 141 143 144 143 136 127 127 127 125 123 125 120 118 120 120 114 109 104 105 106 103 104 102 95 94 93 98 101 107 112 116 124 120 120 115 115 115 118 115 112 107 111 102 83
321 326 215 221 249 248 261 256 245 226 149 234 29 130 218 111 64 257 119 157 73 179 76 349 318 249 141 107 90 55 52 64 156 102 113 123 131 131 135 131 127 118 121 121 125 121 129 129 132 136 142 145 145 145 147 147 141 133 127 128 130 127 122 118 119 114 111 107 109 104 101 100 104 102 102 98 95 91 93 97 106 111 118 122 121 125 127 131 126 122 120 115 125 134 132 151 115
262 274 315 272 279 207 234 253 261 233 149 204 190 166 158 135 246 267 88 276 94 284 107 68 204 294 78 190 117 83 76 64 86 96 113 127 131 136 133 125 123 127 119 118 117 118 127 131 134 139 144 148 149 149 146 143 137 133 129 129 130 121 113 113 110 103 108 113 110 110 107 102 100 105 101 99 97 92 94 98 108 112 113 117 130 132 129 131 129 126 122 138 138 162 165 158 155
253 254 199 269 263 261 262 239 243 257 163 184 258 286 16 329 298 263 211 116 199 132 243 37 36 283 105 58 76 100 73 81 93 110 119 127 133 134 127 129 132 125 123 113 114 123 133 132 136 140 147 149 150 149 142 138 136 134 129 130 124 120 119 112 105 100 94 87 86 91 97 99 97 100 104 103 99 102 102 106 115 120 111 117 121 125 124 125 132 126 139 136 158 174 172 180 198
259 237 238 251 257 251 247 235 244 229 235 164 234 203 210 186 201 269 316 196 79 250 82 343 2 357 342 105 115 89 95 101 116 117 124 125 129 129 130 131 125 129 121 125 130 128 130 134 132 140 146 149 148 146 140 137 137 131 125 118 114 118 112 108 100 95 91 87 82 87 91 91 98 102 112 109 114 114 113 114 114 117 121 114 122 115 121 127 133 147 142 150 161 169 199 199 231
251 202 258 257 243 250 249 235 228 222 247 227 225 243 233 245 288 263 232 2 221 351 128 355 217 359 58 62 69 80 106 124 124 123 125 127 128 128 125 122 123 122 122 120 126 122 133 137 133 140 142 141 142 140 137 137 130 123 118 116 116 112 108 104 98 94 93 92 95 93 92 104 112 121 120 130 118 134 126 120 123 124 120 125 131 123 125 135 142 147 152 155 162 186 196 228 280
244 232 199 233 247 246 236 246 254 232 238 225 250 238 209 243 184 240 166 255 79 285 22 354 42 324 334 79 93 117 129 129 120 124 128 130 126 121 121 121 123 122 123 123 123 133 137 135 143 141 134 139 141 139 133 129 124 121 117 119 115 110 106 101 100 99 103 106 106 106 109 114 123 131 141 136 135 135 141 133 129 127 134 132 131 137 131 140 148 156 161 172 184 182 203 232 253
241 234 227 222 232 239 254 258 239 248 241 215 228 232 213 244 212 237 242 232 188 261 78 32 8 269 74 46 95 145 144 124 125 129 130 132 123 120 113 116 120 123 129 128 128 128 137 146 140 152 140 141 141 136 130 128 124 120 122 120 116 112 109 109 108 112 111 113 114 111 111 121 127 132 143 138 150 150 152 144 143 142 140 150 147 138 148 147 157 161 173 179 177 199 211 224 245
235 233 242 239 225 236 233 247 269 250 232 247 210 239 199 228 222 248 257 220 240 213 64 16 313 6 70 138 164 144 133 127 129 133 135 127 127 130 128 117 126 136 135 120 123 137 144 146 143 147 152 159 146 140 133 128 126 124 123 120 118 118 118 117 119 121 122 121 119 118 118 124 134 137 139 146 143 166 153 157 146 147 155 155 167 164 162 166 165 169 178 189 203 217 233 229 243
248 241 247 246 243 235 225 231 233 251 252 235 228 225 185 232 246 224 244 232 249 39 52 258 359 268 126 261 135 173 142 140 147 147 136 136 134 120 125 131 136 154 113 128 131 135 146 146 151 154 165 156 153 149 144 133 131 129 126 122 122 124 122 123 126 131 130 126 131 128 131 137 138 142 146 148 157 158 170 156 169 165 169 173 172 177 174 183 195 203 201 222 224 231 238 238 237
248 249 247 246 240 240 227 222 233 251 235 239 244 228 198 228 221 219 230 221 353 113 299 160 220 7 70 107 180 131 133 142 151 139 126 130 120 109 139 141 141 131 111 125 130 144 148 152 156 158 166 159 158 153 146 140 135 133 130 127 128 128 129 130 135 139 137 137 144 151 148 141 150 148 150 152 161 160 160 204 165 180 185 179 177 179 186 198 202 207 229 240 239 230 235 234 234
226 244 246 239 243 230 234 236 220 232 247 230 207 213 205 224 182 231 6 237 270 201 201 269 21 334 73 302 126 131 139 137 147 136 136 137 133 136 149 148 140 128 123 136 146 142 157 155 164 163 164 162 151 148 146 141 137 135 132 131 133 133 135 142 144 144 140 146 166 180 178 173 143 144 168 145 164 172 163 167 178 181 182 187 178 176 194 190 201 218 230 233 243 232 227 230 229
242 232 233 239 239 234 233 233 220 222 238 222 169 218 205 250 199 221 204 246 244 261 230 126 133 87 343 112 137 135 136 145 149 148 152 145 146 147 157 153 153 149 153 149 155 148 165 163 170 160 164 152 153 150 149 144 147 152 144 141 142 143 148 151 164 159 156 161 191 176 197 175 153 153 147 149 157 142 160 168 181 180 184 177 191 189 190 203 206 214 223 231 235 233 226 221 212
224 234 238 236 231 229 242 236 231 217 220 166 221 224 231 237 243 160 241 231 231 238 225 194 189 140 110 159 136 139 146 147 153 155 157 158 155 155 162 159 156 152 161 159 155 160 169 170 161 169 158 161 155 156 153 151 159 160 153 153 146 155 152 170 171 172 165 175 186 181 186 157 150 146 157 154 138 146 135 176 177 187 189 191 195 202 201 203 209 212 218 227 229 229 225 225 214
216 228 230 233 236 239 231 240 234 227 187 166 200 216 213 235 231 199 188 255 240 226 237 224 248 176 159 161 148 144 147 149 157 154 167 171 155 157 173 160 159 163 161 167 156 174 171 172 163 171 164 153 159 152 151 158 164 160 159 155 153 154 167 175 173 185 178 186 152 168 164 164 160 151 110 118 131 151 158 173 188 193 197 205 211 210 205 215 211 214 214 217 225 226 226 226 242
205 222 232 235 231 240 236 231 237 242 222 207 228 238 231 230 242 242 264 224 245 256 223 249 192 213 156 151 155 149 148 152 164 169 173 177 149 158 177 164 165 161 166 162 162 169 177 165 170 171 160 160 163 160 162 161 161 169 161 154 158 162 170 162 175 186 166 167 161 180 174 180 166 140 142 154 156 151 175 180 177 197 199 190 200 214 197 194 202 204 204 213 219 223 223 340 346
220 223 224 235 241 230 231 238 235 240 221 206 230 230 240 242 226 234 244 249 243 225 224 219 231 229 138 149 162 153 154 159 171 174 183 176 154 171 169 160 148 168 161 162 166 166 173 170 170 170 162 170 163 165 157 155 165 166 163 154 154 171 166 163 177 175 176 187 188 190 188 185 179 141 169 183 184 193 212 206 193 195 201 217 175 201 295 200 199 233 202 173 230 243 40 249 6
228 224 228 227 236 249 229 230 231 241 222 208 233 232 242 230 227 230 235 241 245 255 267 322 52 345 129 148 159 158 162 166 173 181 180 187 161 172 133 149 161 169 171 151 159 170 162 174 172 168 166 171 172 166 160 162 169 166 158 158 165 173 160 174 182 179 179 186 197 193 197 201 164 140 208 240 231 212 181 205 204 214 219 201 158 151 223 135 262 260 46 308 57 294 23 307 232
226 231 226 230 232 239 246 239 233 235 229 214 231 243 240 231 232 233 235 234 239 248 254 155 234 253 255 154 165 165 167 171 176 179 186 182 163 167 152 168 165 164 173 153 162 172 157 178 172 162 169 172 173 168 168 169 167 162 154 155 190 142 172 165 197 178 178 192 197 191 207 210 202 181 176 190 200 200 151 196 182 173 68 178 231 130 93 351 247 77 324 22 296 3 214 41 326
223 229 229 234 230 233 240 246 231 232 230 218 226 238 244 237 234 238 235 230 231 245 243 196 218 234 237 176 168 172 170 172 172 178 186 177 146 150 171 167 167 176 169 161 161 167 165 176 176 172 169 175 170 170 175 176 160 157 154 171 177 151 190 177 176 177 199 184 186 200 200 202 229 192 189 209 182 199 123 333 20 276 130 353 354 16 102 211 57 265 48 220 134 235 165 90 331
221 231 225 232 238 224 233 244 244 246 233 219 229 242 242 242 236 239 239 234 227 240 235 165 220 232 228 193 175 177 174 174 171 174 184 170 155 172 172 171 173 173 166 166 162 168 169 175 178 176 166 175 165 174 178 171 161 159 163 181 160 158 188 191 170 186 204 177 177 195 195 204 233 195 194 219 37 216 82 195 126 205 205 156 125 254 122 79 237 96 224 12 53 154 17 62 304
220 227 229 227 238 235 221 229 233 238 234 214 228 240 238 233 226 236 220 247 231 230 239 154 206 225 236 195 174 180 176 177 173 169 182 176 169 176 179 175 175 165 164 168 172 166 169 176 178 176 163 174 169 181 172 166 163 164 170 179 144 168 184 186 194 194 185 189 182 183 202 193 222 202 209 227 169 294 177 165 85 242 329 155 158 126 89 47 13 332 42 352 14 9 7 14 326
233 230 228 229 230 233 239 233 239 230 235 226 225 241 241 234 226 234 224 210 238 236 243 171 199 236 239 198 175 182 181 176 173 174 182 179 176 175 183 178 174 167 169 171 185 157 168 183 175 166 174 171 181 178 168 164 167 166 171 161 166 168 182 191 193 180 195 182 175 186 185 200 230 118 357 324 345 206 200 133 125 304 285 104 81 63 59 5 22 27 1 57 355 11 7 2 355
229 234 225 221 225 235 228 227 222 226 237 230 230 246 237 232 233 230 226 215 209 230 241 209 228 226 238 195 180 184 185 178 176 179 184 182 174 176 183 183 175 166 170 172 177 157 165 183 173 169 176 172 185 174 168 167 168 170 170 171 166 166 186 197 173 189 193 174 177 195 186 187 223 54 12 297 322 351 337 226 139 96 183 339 67 62 47 51 81 57 87 5 18 47 11 38 14
227 227 232 227 218 230 221 216 224 227 233 221 220 240 231 231 233 234 209 222 213 211 223 212 227 228 233 209 188 189 184 181 183 180 181 181 174 179 186 180 173 164 170 169 168 168 165 179 171 170 173 175 180 171 173 171 171 170 172 172 157 176 192 179 168 196 200 191 181 187 194 193 126 97 105 291 341 324 337 345 316 55 33 88 77 36 72 49 37 21 4 351 32 319 65 357 57
215 222 221 231 223 226 206 208 216 228 220 222 224 242 238 233 229 228 205 207 224 205 211 214 217 217 222 212 183 199 187 184 180 181 175 184 180 180 181 172 167 171 161 171 170 165 168 171 171 173 174 176 173 173 175 173 174 170 171 171 169 188 169 180 186 195 203 199 175 172 200 200 89 128 172 134 124 273 128 216 287 229 95 74 68 54 359 45 31 2 21 358 6 342 66 7 6
214 216 216 213 229 221 209 209 213 221 220 222 222 238 238 237 234 222 203 203 211 211 210 213 216 215 210 204 192 197 186 179 178 175 176 185 185 181 174 157 170 173 166 170 166 160 171 173 172 173 174 175 175 172 174 169 172 174 175 165 170 186 174 183 192 202 197 181 185 179 162 240 133 270 227 150 196 200 129 228 226 44 70 67 45 37 35 354 54 336 40 24 344 345 34 265 31
212 218 208 213 217 223 215 206 209 217 224 216 217 236 234 232 239 241 202 200 200 214 212 209 214 206 200 200 191 196 178 176 174 175 173 183 187 178 166 158 173 170 165 168 163 167 171 168 170 175 176 174 173 170 167 173 172 175 174 168 175 176 172 186 191 189 190 164 203 170 139 197 190 169 219 136 177 162 219 191 194 91 76 67 54 18 23 1 355 349 40 37 349 331 288 52 73
206 207 226 217 217 218 227 213 205 212 212 218 213 230 234 236 226 228 237 188 203 214 213 220 219 210 198 205 204 202 186 175 176 175 175 180 182 176 164 162 171 172 166 169 167 165 171 168 175 174 174 175 169 165 169 175 175 172 172 172 177 177 178 178 179 193 161 190 140 135 163 108 70 84 49 50 117 191 132 109 91 63 57 30 48 59 73 22 21 357 342 26 356 328 323 22 106
199 202 212 218 221 222 221 220 202 204 207 222 225 226 231 233 241 243 234 181 196 200 209 221 220 215 201 184 199 229 211 184 173 173 171 172 175 176 169 166 171 173 167 168 166 168 168 169 172 172 176 173 171 162 171 176 171 172 173 170 171 183 172 154 163 161 156 137 134 125 130 79 70 101 98 84 46 86 97 90 68 40 32 27 30 302 131 137 288 50 312 334 110 336 335 343 351
212 208 214 218 220 219 223 223 223 200 209 218 225 229 220 222 235 211 148 172 198 213 215 222 222 215 202 185 193 194 237 200 169 160 163 171 171 170 159 166 167 169 168 166 168 167 168 169 171 172 173 169 165 169 172 175 176 176 172 173 176 180 172 170 157 145 146 132 109 124 125 119 72 235 103 83 54 62 68 55 56 20 30 354 26 327 346 10 3 316 6 31 266 132 261 147 167
218 219 220 223 228 233 225 230 224 218 211 220 221 234 231 213 226 214 186 177 201 213 220 226 229 227 223 187 191 189 210 214 166 160 164 165 166 163 163 165 165 167 167 168 168 170 166 169 171 171 168 164 168 172 182 178 176 175 174 180 180 174 175 159 151 153 144 105 122 124 111 121 154 123 94 86 86 57 48 55 46 44 353 47 13 360 331 327 318 262 173 248 291 164 124 223 107
227 223 226 226 225 228 226 220 214 226 231 219 221 230 233 218 221 223 206 194 204 209 217 229 227 224 226 210 192 197 195 189 172 169 169 163 169 169 166 166 164 169 172 168 168 165 170 170 172 171 166 168 168 181 187 181 183 178 179 183 182 175 172 163 155 141 124 111 120 116 120 111 113 105 87 78 76 68 61 49 23 357 337 53 318 34 89 242 219 197 10 154 352 84 147 264 143
232 232 225 228 227 227 226 226 210 217 231 225 220 228 230 225 226 220 226 228 197 206 214 221 224 222 221 220 204 184 189 189 178 167 166 175 173 172 167 159 166 167 166 169 153 153 175 174 174 163 167 171 177 182 169 184 186 186 191 177 180 156 131 142 152 124 108 121 87 99 102 124 113 98 99 85 69 59 53 21 357 343 314 322 262 194 183 222 301 51 193 138 141 102 125 335 360
230 229 230 229 225 217 212 223 221 214 223 213 216 229 225 227 229 228 225 232 219 201 212 217 223 226 222 217 214 201 189 182 181 171 172 176 179 177 168 170 168 167 169 140 148 169 177 172 165 168 164 177 177 183 182 179 182 183 194 168 161 158 142 99 115 114 108 128 119 104 83 85 96 116 115 112 84 67 77 337 204 201 196 338 313 309 75 93 147 156 158 133 165 166 140 122 338
229 236 222 224 227 221 230 207 217 215 218 213 215 228 229 218 219 225 227 225 234 208 207 216 221 224 222 221 213 207 193 180 178 173 172 173 173 176 174 172 166 169 167 143 153 173 179 174 174 173 168 172 177 179 182 174 169 172 152 135 131 127 135 140 140 143 146 145 143 141 132 126 131 104 88 103 87 7 9 6 353 51 16 96 135 129 123 96 139 110 98 108 349 335 125 98 97
223 230 232 226 231 228 213 228 211 210 217 209 216 225 227 217 218 223 221 221 222 222 215 216 221 219 214 215 209 199 193 184 183 173 177 176 174 175 174 174 172 176 164 153 164 164 205 181 172 173 171 172 177 179 179 168 167 163 156 155 157 157 153 160 167 160 159 163 154 139 126 124 105 96 82 39 21 360 35 40 5 102 115 120 120 114 112 104 65 84 82 98 86 32 87 135 109
221 208 214 231 232 234 224 217 188 198 210 197 207 225 228 219 224 216 219 222 219 217 219 220 215 213 210 208 202 196 192 186 186 181 175 177 177 174 177 173 176 177 164 162 169 184 195 181 172 175 176 177 178 178 177 176 172 172 166 170 171 171 167 171 168 157 159 155 151 138 116 108 108 106 92 323 38 343 79 94 127 112 113 110 91 80 84 85 80 58 57 66 74 93 359 111 119
220 202 203 229 231 217 213 213 201 213 215 217 205 216 237 230 219 220 211 219 216 214 216 218 215 207 207 205 196 193 187 186 183 187 177 177 176 178 176 174 175 177 165 168 188 181 181 179 179 178 178 176 176 175 179 178 177 174 176 183 179 175 176 160 155 158 145 138 136 131 127 122 132 140 38 9 133 128 113 129 104 83 93 99 106 97 84 77 89 78 59 65 51 40 7 100 81
221 192 201 215 224 229 227 217 213 212 212 215 205 202 226 238 234 209 208 213 213 214 215 213 213 208 203 200 196 191 186 184 183 182 176 179 173 173 172 175 174 174 172 175 190 174 177 184 178 178 178 181 179 174 178 180 181 184 180 176 177 172 162 148 159 157 148 143 136 138 143 155 141 59 95 146 135 130 146 101 99 98 91 95 93 92 86 79 73 73 75 68 64 68 49 49 89
222 213 206 207 213 233 236 212 216 210 216 220 213 194 219 227 222 228 203 213 212 213 213 210 208 205 199 195 194 191 184 180 181 178 173 176 175 172 172 172 176 174 170 178 183 170 179 181 178 176 182 185 183 179 178 182 191 186 173 170 170 160 155 153 159 163 149 145 141 139 130 128 148 157 156 158 176 137 120 128 114 98 84 75 80 86 89 87 81 78 72 73 77 78 57 52 54
218 216 207 201 213 222 227 225 219 220 218 227 227 202 208 229 215 213 225 205 211 211 214 209 205 204 199 194 192 189 184 178 177 176 171 172 172 166 163 173 178 165 166 177 182 174 179 179 183 188 183 184 184 182 184 188 189 177 174 173 169 155 156 162 163 165 145 151 147 143 143 153 162 154 149 155 137 96 111 91 110 110 98 103 99 95 88 92 91 88 80 74 71 74 76 72 66
212 210 221 195 208 212 221 225 231 220 223 219 221 224 200 230 212 210 223 223 204 210 211 204 201 201 200 193 193 190 184 176 174 172 171 168 169 168 166 175 175 163 168 179 186 180 177 181 186 186 183 186 183 181 188 190 183 173 175 173 167 162 166 170 169 170 167 159 154 148 148 157 164 158 165 150 160 150 144 114 106 108 106 101 94 94 99 95 93 92 84 82 77 73 75 74 72
207 212 210 204 195 193 202 207 211 219 227 211 218 224 214 217 233 227 210 224 202 203 211 200 201 201 198 193 191 189 179 174 173 170 168 165 168 166 170 177 173 166 173 179 182 183 182 182 185 184 185 188 184 182 187 185 179 170 171 169 155 159 172 172 172 170 170 168 157 151 161 166 161 162 164 165 156 163 147 139 128 110 103 94 93 94 87 88 90 90 87 81 73 71 63 62 67
199 209 196 202 198 193 195 196 208 217 225 227 221 212 231 227 229 235 239 215 204 193 206 205 198 195 193 191 193 187 182 178 179 174 165 167 169 168 174 178 174 170 170 179 179 180 181 181 183 185 184 184 181 181 186 179 176 173 165 167 155 166 175 177 174 173 169 166 158 161 170 168 169 165 168 173 163 162 156 137 119 109 104 107 104 100 99 98 97 97 94 90 86 81 81 80 75
201 209 204 206 204 192 194 197 198 207 213 212 216 203 213 222 215 207 222 243 208 197 200 207 194 189 188 193 199 190 184 180 178 179 172 174 171 168 174 180 176 172 173 176 177 181 180 184 185 186 185 184 182 182 185 180 177 167 168 174 150 173 183 173 175 172 167 168 169 166 172 173 160 164 173 158 166 156 151 137 125 123 113 107 108 107 105 98 94 96 90 88 87 80 80 78 76
200 211 208 209 210 197 208 198 205 202 213 209 206 218 208 223 242 229 206 215 224 183 185 199 190 184 185 194 200 193 185 182 174 172 177 175 169 168 173 180 180 176 173 174 177 180 184 187 185 187 186 186 184 182 185 181 174 169 167 168 170 182 183 174 170 167 168 169 166 167 174 166 156 153 166 150 161 154 152 140 136 124 125 119 116 118 115 106 102 99 96 96 93 92 95 96 101
188 207 208 210 206 215 209 214 232 279 220 222 207 215 230 214 204 208 202 220 202 183 190 197 188 179 185 195 197 192 185 181 176 176 179 176 169 168 176 178 183 180 177 180 177 181 184 186 186 187 187 185 185 185 186 176 181 170 169 167 177 190 172 171 167 167 165 162 171 169 163 158 157 169 161 159 163 151 156 147 132 128 127 125 116 111 109 112 112 107 104 103 100 98 91 86 87
191 213 202 211 224 222 205 211 185 220 210 206 198 206 214 208 205 197 190 221 203 184 196 197 190 187 194 194 193 190 184 180 175 175 180 177 176 174 176 179 181 183 182 179 179 182 182 184 184 184 187 185 185 184 186 177 176 172 172 174 182 176 164 170 166 165 159 162 160 163 159 144 153 173 163 162 158 156 150 139 135 136 130 127 128 122 116 115 115 111 112 106 105 110 112 110 93
217 203 198 209 197 216 205 219 205 202 207 211 200 207 222 211 208 175 186 205 197 180 190 193 192 189 189 186 188 188 182 177 172 177 183 183 178 175 175 180 182 182 184 184 178 177 181 186 185 184 185 186 184 182 180 176 174 171 171 174 174 167 166 171 149 154 157 151 143 142 147 148 142 152 160 161 162 155 149 146 142 138 136 132 129 124 125 124 119 117 115 115 125 125 110 103 99
234 214 205 214 227 216 205 208 223 205 205 209 203 204 216 215 224 187 187 202 202 192 194 199 192 184 185 183 183 186 185 177 174 175 179 183 179 179 180 179 181 181 182 182 181 180 182 184 183 184 182 182 182 179 175 174 167 162 161 172 168 171 172 166 150 149 152 148 146 146 149 148 154 158 161 160 160 154 154 149 148 142 142 137 133 137 133 125 126 126 132 131 123 127 121 112 108
203 218 207 197 228 216 232 200 221 208 212 208 214 206 219 221 218 206 191 193 198 198 195 193 189 183 186 185 184 186 182 177 172 172 180 183 179 175 177 181 181 177 177 180 180 179 180 182 180 182 181 179 175 174 168 162 167 162 167 165 155 169 169 152 146 149 146 145 149 147 152 152 156 161 158 164 160 157 154 153 148 149 145 142 140 140 137 137 134 138 128 126 137 126 119 111 109
202 209 212 202 200 201 210 205 214 214 214 212 206 221 214 206 198 214 187 195 201 199 191 191 190 185 182 186 187 183 181 179 179 178 184 181 174 172 172 177 176 174 179 181 177 177 183 184 183 180 182 180 176 166 162 167 174 164 171 164 169 168 152 145 144 148 145 147 148 154 154 157 159 160 166 162 160 156 153 154 151 149 148 144 145 139 143 146 142 137 131 136 135 131 120 121 116